Notices

What's New in latest Release from April 7th, 2021:

- Updated Glossary, including Speed of Maximum Gust, and Total Hourly Precipitation

- Updated national and regional climate services offices contacts and prices information

- Addition of station inventory lists for 1981-2010, 1971-2000, and 1961-1990 Normals.

If you haven't already, please take our survey and provide feedback about our website: https://eccc.sondage-survey.ca/f/LanguageSelection.aspx?s=442ca660-fcf1-47c0-95a9-59707d6fd709

Hourly Data Report for April 20, 2012

MIRAMICHI RCS
NEW BRUNSWICK

47°00'34.000" N
65°27'54.000" W
33.00 m
8100989
71744
ACQ

Download Data

Hourly Data (April 2012)
Hourly Data Report for April 20, 2012
TIME
LST
Temp Definition
°C
Dew Point Definition
°C
Rel Hum Definition
%
Precip. Amount Definition
mm

Wind Dir Definition
10's deg

Wind Spd Definition
km/h
Visibility Definition
km
Stn Press Definition
kPa
Hmdx Definition


Wind Chill Definition


Weather Definition


00:00 2.6 -1.2 76   22 4   101.08     LegendNANA
01:00 2.2 -1.3 78   20 7   101.00     LegendNANA
02:00 1.5 -1.3 82   21 6   100.98     LegendNANA
03:00 1.7 -0.7 84   20 7   100.93     LegendNANA
04:00 3.6 0.7 81   22 13   100.88     LegendNANA
05:00 2.6 0.4 85   23 9   100.94     LegendNANA
06:00 2.6 0.6 87   22 7   100.96     LegendNANA
07:00 4.3 1.4 81   26 9   101.07     LegendNANA
08:00 4.2 1.5 83   30 4   101.10     LegendNANA
09:00 6.0 2.0 75   30 4   101.13     LegendNANA
10:00 9.8 3.3 64   8 4   101.13     LegendNANA
11:00 11.9 3.3 56   1 6   101.15     LegendNANA
12:00 12.8 3.2 52   29 2   101.14     LegendNANA
13:00 13.3 3.4 51   2 4   101.15     LegendNANA
14:00 13.8 2.8 47   2 6   101.10     LegendNANA
15:00 10.1 3.7 64   5 20   101.17     LegendNANA
16:00 8.4 3.0 69   6 17   101.17     LegendNANA
17:00 8.1 1.9 65   7 20   101.18     LegendNANA
18:00 6.0 2.1 76   5 19   101.19     LegendNANA
19:00 5.2 1.4 76   6 19   101.24     LegendNANA
20:00 4.9 1.7 80   6 15   101.28     LegendNANA
21:00 4.9 1.5 79   7 15   101.28     LegendNANA
22:00 4.7 1.5 80   7 13   101.27     LegendNANA
23:00 4.7 1.6 80   7 15   101.19     LegendNANA

Notes on Data Quality.

Legend

  • E = Estimated
  • M = Missing
  • NA = Not Available*
  • [empty] = Indicates an unobserved value
Date modified: